Probability
0 0 0 0 0 0 0 0 0 0 0 0 0 0 0 0 0 0 0 0 0 0 0 0 0 0 0 0 0 0 0 0 0 0 0 0 0 0 0 0 0 0 0
0 0 0 0 0 0 0 0 0 0 0 0 0 0 0 0 0 0 0 0 0 0 0 0 0 0 0 0 0 0 0 0 0 0 0 0 0 0 0 0 0 0 0
0 0 0 0 0 0 0 0 0 0 0 0 0 0 0 0 0 0 0 0 0 0 0 0 0 0 0 0 0 0 0 0 0 0 0 0 0 0 0 0 0 0 0
0 0 0 0 0 0 0 0 0 0 0 0 0 0 0 0 0 0 0 0 0 0 0 0 0 0 0 0 0 0 0 0 0 0 0 0 0 0 0 0 0 0 0
0 0 0 0 0 0 0 0 0 0 0 0 0 0 0 0 0 0 0 0 0 0 0 0 0 0 0 0 0 0 0 0 0 0 0 0 0 0 0 0 0 0 0
0 0 0 0 0 0 0 0 0 0 0 0 0 0 0 0 0 0 0 0 0 0 0 0 0 0 0 0 0 0 0 0 0 0 0 0 0 0 0 0 0 0 0
0 0 0 0 0 0 0 0 0 0 0 0 0 0 0 0 0 0 0 0 0 0 0 0 0 0 0 0 0 0 0 0 0 0 0 0 0 0 0 0 0 0 0
0 0 0 0 0 0 0 0 0 0 0 0 0 0 0 0 0 0 0 0 0 0 0 0 0 0 0 0 0 0 0 0 0 0 0 0 0 0 0 0 0 0 0
0 0 0 0 0 0 0 0 0 0 0 0 0 0 0 0 0 0 0 0 0 0 0 0 0 0 0 0 0 0 0 0 0 0 0 0 0 0 0 0 0 0 0
0 0 0 0 0 0 0 0 0 0 0 0 0 0 0 0 0 0 0 0 0 0 0 0 0 0 0 0 0 0 0 0 0 0 0 0 0 0 0 0 0 0 0
0 0 0 0 0 0 0 0 0 0 0 0 0 0 0 0 0 0 0 0 0 0 0 0 0 0 0 0 0 0 0 0 0 0 0 0 0 0 0 0 0 0 0
0 0 0 0 0 0 0 0 0 0 0 0 0 0 0 0 0 0 0 0 0 0 0 0 0 0 0 0 0 0 0 0 0 0 0 0 0 0 0 0 0 0 0
0 0 0 0 0 0 0 0 0 0 0 0 0 0 0 0 0 0 0 0 0 0 0 0 0 0 0 0 0 0 0 0 0 0 0 0 0 0 0 0 0 0 0
0 0 0 0 0 0 0 0 0 0 0 0 0 0 0 0 0 0 0 0 0 0 0 0 0 0 0 0 0 0 0 0 0 0 0 0 0 0 0 0 0 0 0
0 0 0 0 0 0 0 0 0 0 0 0 0 0 0 0 0 0 0 0 0 0 0 0 0 0 0 0 0 0 0 0 0 0 0 0 0 0 0 0 0 0 0
0 0 0 0 0 0 0 0 0 0 0 0 0 0 0 0 0 0 0 0 0 0 0 0 0 0 0 0 0 0 0 0 0 0 0 0 0 0 0 0 0 0 0
0 0 0 0 0 0 0 0 0 0 0 0 0 0 0 0 0 0 0 0 0 0 0 0 0 0 0 0 0 0 0 0 0 0 0 0 0 0 0 0 0 0 0
0 0 0 0 0 0 0 0 0 0 0 0 0 0 0 0 0 0 0 0 0 0 0 0 0 0 0 0 0 0 0 0 0 0 0 0 0 0 0 0 0 0 0
0 0 0 0 0 0 0 0 0 0 0 0 0 0 0 0 0 0 0 0 0 0 0 0 0 0 0 0 0 0 0 0 0 0 0 0 0 0 0 0 0 0 0
0 0 0 0 0 0 0 0 0 0 0 0 0 0 0 0 0 0 0 0 0 0 0 0 0 0 0 0 0 0 0 0 0 0 0 0 0 0 0 0 0 0 0
0 0 0 0 0 0 0 0 0 0 0 0 0 0 0 0 0 0 0 0 0 0 0 0 0 0 0 0 0 0 0 0 0 0 0 0 0 0 0 0 0 0 0
0 0 0 0 0 0 0 0 0 0 0 0 0 0 0 0 0 0 0 0 0 0 0 0 0 0 0 0 0 0 0 0 0 0 0 0 0 0 0 0 0 0 0
0 0 0 0 0 0 0 0 0 0 0 0 0 0 0 0 0 0 0 0 0 0 0 0 0 0 0 0 0 0 0 0 0 0 0 0 0 0 0 0 0 0 0
0 0 0 0 0 0 0 0 0 0 0 0 0 0 0 0 0 0 0 0 0 0 0 0 0 0 0 0 0 0 0 0 0 0 0 0 0 0 0 0 0 0 0
0 0 0 0 0 0 0 0 0 0 0 0 0 0 0 0 0 0 0 0 0 0 0 0 0 0 0 0 0 0 0 0 0 0 0 0 0 0 0 0 0 0 0
0 0 0 0 0 0 0 0 0 0 0 0 0 0 0 0 0 0 0 0 0 0 0 0 0 0 0 0 0 0 0 0 0 0 0 0 0 0 0 0 0 0 0
Wind_Speed
9 8 8 7 7 8 7 8 8 7 9 9 8 8 7 7 6 5 5 5 5 4 4 5 6 5 4 4 4 4 4 5 9 7 5 5 6 7 7 5 6 6 7
9 8 8 7 8 8 8 8 8 8 8 8 8 8 7 7 7 7 6 6 6 6 5 5 6 5 5 5 4 5 5 6 7 10 6 5 6 7 6 7 7 7 6
9 9 8 8 8 8 8 8 8 8 8 8 8 8 7 7 7 6 6 6 6 6 6 6 6 6 6 5 6 6 5 6 6 7 8 5 5 5 6 7 8 6 8
8 9 9 8 8 8 8 8 8 8 8 8 7 7 7 7 7 6 6 5 5 5 6 6 7 7 8 7 7 7 6 6 6 6 7 6 5 6 5 6 7 5 6
8 8 8 7 7 7 7 7 7 7 7 7 7 6 6 6 6 7 6 6 6 6 6 7 8 10 13 11 8 6 6 6 5 6 8 7 6 5 6 5 8 6 6
8 7 7 7 7 7 7 7 7 7 6 6 7 7 7 6 10 12 9 6 6 7 7 7 8 10 13 18 19 17 13 8 7 7 8 9 9 7 7 7 7 8 7
7 6 7 7 7 7 7 7 7 7 6 6 6 7 7 8 11 12 12 7 6 6 7 7 7 8 11 7 12 17 15 19 18 12 10 11 10 8 8 8 7 9 10
6 6 6 7 6 6 6 6 6 5 6 6 6 7 6 7 11 12 12 7 6 7 7 7 8 8 8 9 7 8 9 10 12 10 9 10 10 9 8 10 10 9 8
6 6 6 7 7 6 7 6 5 5 5 5 6 6 6 7 11 12 11 5 6 8 8 8 8 8 14 17 10 8 9 8 13 18 19 18 21 22 17 8 6 8 10
6 6 6 6 6 6 6 5 4 4 4 4 5 5 6 6 9 11 11 5 6 6 6 7 12 13 16 17 9 8 10 9 8 9 11 14 12 13 19 10 6 7 8
5 5 5 5 5 5 4 4 4 3 3 4 4 4 5 6 8 10 11 5 6 6 5 5 6 15 18 18 16 9 14 14 8 7 7 7 6 6 6 6 6 6 8
5 5 4 4 4 4 4 3 3 3 3 3 3 4 3 4 6 9 12 12 10 6 6 5 7 15 17 19 15 16 21 18 6 5 6 6 6 5 5 5 6 6 7
5 4 4 4 3 3 3 3 3 3 3 3 3 3 3 3 5 11 13 14 14 9 7 12 15 18 18 13 16 20 16 7 5 6 7 6 5 5 4 4 4 5 6
5 4 3 3 3 2 2 3 3 3 3 3 3 4 4 3 3 4 5 6 10 9 8 11 17 18 14 14 14 11 6 6 6 6 6 5 4 3 4 3 3 3 4
4 3 3 3 2 2 2 2 3 4 4 4 4 4 4 5 7 10 7 5 5 6 7 5 5 5 5 6 6 6 5 5 6 5 5 5 4 4 4 3 3 3 3
4 3 2 2 1 1 1 1 3 4 7 8 9 8 7 10 13 14 14 15 16 16 11 6 6 6 7 7 6 5 5 5 5 5 5 5 5 4 4 3 3 3 4
3 2 2 1 1 1 2 2 3 4 6 8 10 11 12 13 14 14 15 16 16 16 8 6 7 7 6 6 5 5 5 5 4 4 5 4 4 4 4 4 4 3 4
2 2 2 2 2 2 2 2 3 3 4 4 7 12 13 14 14 14 15 13 8 7 5 7 7 6 6 5 5 5 5 4 4 4 4 4 4 4 4 3 3 4 4
2 1 1 1 1 2 2 2 3 4 5 5 4 6 11 12 13 14 13 6 6 6 6 6 6 6 5 5 5 5 4 4 4 4 4 4 4 4 4 3 3 6 5
1 1 1 1 1 2 2 3 3 4 5 5 5 5 4 5 5 6 5 5 6 6 6 6 5 5 5 5 4 4 4 4 4 4 4 4 4 3 4 4 4 4 3
1 1 2 2 2 2 3 3 4 4 5 6 6 7 12 7 6 6 5 5 6 6 6 6 5 5 5 4 4 5 5 5 4 4 4 4 4 3 3 3 4 4 3
1 1 1 2 2 3 4 4 4 5 6 7 6 7 14 8 5 6 6 6 6 6 5 5 5 5 5 5 4 5 5 5 4 4 4 4 4 3 3 3 3 3 3
1 1 2 3 3 6 6 4 5 5 6 6 7 6 6 6 6 7 7 6 5 5 5 5 5 5 5 5 4 5 5 5 4 4 4 4 4 4 3 3 4 4 4
1 2 3 4 4 4 5 5 5 6 6 7 7 7 7 7 7 8 7 6 6 6 5 5 5 7 8 6 5 5 5 5 5 5 6 5 5 4 4 4 4 4 4
2 3 4 4 4 5 5 6 6 6 7 7 7 7 7 7 7 7 6 6 7 6 7 6 5 6 8 9 7 6 10 14 12 7 5 6 6 5 5 5 4 4 4
3 4 4 4 4 5 5 6 6 7 7 8 8 7 7 8 8 7 7 6 6 6 7 6 7 8 8 7 8 11 15 16 16 15 8 5 6 6 5 5 6 5 5
Wind_Direction
182 181 177 175 168 163 163 164 162 159 159 165 169 170 172 176 178 182 193 196 203 213 216 219 230 229 229 230 228 229 230 227 259 271 263 277 284 288 294 292 290 287 290
179 177 177 173 167 166 167 166 162 163 165 168 169 173 178 181 184 190 198 201 205 214 221 226 235 235 236 233 231 234 236 233 248 271 276 272 273 279 284 289 292 290 284
174 176 176 176 173 173 171 167 165 166 167 169 171 178 183 185 188 195 198 204 210 215 219 226 235 235 243 241 240 240 242 249 246 263 276 271 272 277 285 284 281 282 286
172 175 179 180 177 174 169 167 168 167 170 174 177 181 184 186 191 196 199 208 217 225 227 229 233 234 239 241 245 245 246 252 256 264 274 276 273 273 276 282 285 271 278
172 178 179 172 169 168 166 166 165 168 173 174 176 182 186 190 196 197 200 207 218 231 237 237 239 242 246 250 251 244 241 248 256 264 272 278 275 277 273 274 282 281 270
172 176 167 164 164 166 165 164 167 173 174 175 184 187 194 203 207 208 204 209 217 227 239 244 248 252 257 263 266 267 261 257 258 260 269 271 274 270 273 274 280 288 286
168 167 165 164 166 169 166 168 176 178 178 186 192 194 203 210 212 217 219 217 221 230 238 245 256 256 263 255 266 271 271 270 268 266 267 267 271 269 271 275 271 273 277
162 163 163 164 166 165 168 177 181 181 185 192 198 201 205 214 216 223 227 226 229 236 239 243 249 254 254 259 252 253 251 257 262 265 260 262 264 263 257 266 270 274 274
162 165 164 162 165 169 178 183 183 184 193 196 196 201 209 218 220 226 227 222 233 241 244 247 253 254 265 272 268 261 263 261 268 271 272 275 278 283 284 281 276 280 285
165 162 159 161 166 176 182 183 183 186 196 196 205 208 211 218 223 227 228 222 237 247 249 249 257 264 271 275 269 263 269 268 265 271 274 277 278 280 284 276 266 275 282
145 146 152 159 166 170 172 175 177 185 191 202 214 221 219 223 229 232 236 231 234 247 251 251 254 271 275 277 276 267 270 277 269 264 266 266 265 263 263 256 245 249 267
130 140 149 153 157 158 164 176 179 181 194 211 221 233 233 230 233 243 249 251 255 253 256 256 261 276 278 281 281 278 282 286 279 272 272 271 267 262 256 253 250 246 247
129 138 143 143 148 154 164 177 182 185 197 215 221 234 245 238 244 253 257 260 264 264 263 270 277 281 283 282 281 284 286 279 270 271 272 269 260 254 252 259 262 258 258
132 138 139 141 150 160 168 175 184 196 206 218 227 238 247 247 244 246 249 260 266 270 273 275 279 281 280 277 280 282 270 258 263 264 268 267 265 257 253 252 261 268 273
134 135 136 143 158 177 192 201 205 212 212 223 228 226 235 250 251 258 264 256 251 256 275 269 265 268 264 263 263 259 253 259 268 260 265 268 266 264 262 254 252 260 263
133 139 145 153 170 186 210 270 258 257 259 255 257 258 259 264 274 273 274 277 280 282 283 272 270 268 268 269 267 264 255 252 253 258 262 264 265 261 259 259 254 253 263
135 145 147 162 185 204 215 229 268 286 277 272 271 273 273 277 278 280 282 285 285 286 280 270 271 271 271 268 267 265 262 257 254 256 258 258 259 258 258 262 259 256 259
128 151 166 185 198 215 228 237 245 262 278 276 273 275 280 281 283 285 287 291 284 276 260 265 267 267 265 264 263 262 260 260 256 256 255 252 249 251 253 255 254 254 259
134 163 177 197 217 233 242 249 254 260 267 276 280 280 281 285 286 284 287 274 267 264 259 261 263 264 263 262 261 257 253 254 252 250 253 252 248 244 247 248 253 268 270
150 234 258 234 241 249 251 255 260 264 270 273 273 274 279 281 272 274 265 258 261 263 263 264 263 262 262 261 261 257 256 253 250 246 246 245 242 238 240 245 250 255 255
174 240 274 274 250 248 252 255 259 262 266 270 270 276 286 282 270 269 266 261 260 262 263 264 265 263 257 254 252 252 252 252 246 243 243 241 233 230 232 239 247 248 251
196 236 246 250 256 259 266 261 262 265 268 273 278 282 287 284 273 270 268 265 260 258 259 262 262 258 251 247 246 249 251 252 248 241 241 237 229 225 225 234 248 249 248
224 252 263 265 265 275 279 269 266 267 270 272 277 279 277 270 269 269 268 266 263 262 261 258 263 264 256 246 240 240 245 244 237 233 238 236 227 220 219 228 239 249 247
240 254 262 268 269 265 266 268 267 270 272 273 274 274 273 271 271 272 271 271 269 265 262 260 260 262 262 257 248 239 237 240 236 231 225 228 223 219 218 222 230 239 244
261 265 267 267 267 267 269 270 270 271 273 275 275 276 275 275 274 274 271 269 269 268 266 264 262 260 260 260 255 245 253 258 256 247 223 218 217 214 215 218 223 231 231
269 269 269 268 266 267 269 271 273 274 275 277 277 275 275 276 275 275 274 270 269 269 268 265 261 261 260 261 261 262 268 267 262 259 242 213 206 209 210 217 219 225 226